Location: Zagreb
(45.8000°N, 16.0000°E)
Time: 12:44:31
(UTC+01:00)

Vanguard 1 Rocket - Pass Details

Date: 11 October 2020
Orbit: 656 x 4221 km, 34.3° (Epoch: 28 October)

Event Time Altitude Azimuth Distance (km) Brightness Sun altitude
Rises 19:44:04 0° 268° (W) 4,763 12.8 -16.0°
Reaches altitude 10° 19:46:50 10° 261° (W) 4,134 11.9 -16.5°
Maximum altitude 19:57:47 43° 195° (SSW) 3,454 10.3 -18.4°
Enters shadow 20:15:31 12° 135° (SE) 6,706 11.3 -21.4°
Drops below altitude 10° 20:16:55 10° 134° (SE) 6,994 - -21.7°
Sets 20:23:32 0° 129° (SE) 8,307 - -22.8°
